�������l�o���
Date,Time,MP-1(��Sv/h),MP-2(��Sv/h),MP-3(��Sv/h),MP-4(��Sv/h),MP-5(��Sv/h),MP-6(��Sv/h),MP-7(��Sv/h),MP-8(��Sv/h),����,����(m/s),���J
2019/06/05,00:00,0.772,1.126,0.775,1.401,1.047,0.443,0.774,0.728,��,7.5,��
2019/06/05,00:10,0.772,1.125,0.774,1.399,1.046,0.444,0.774,0.727,��,8.3,��
2019/06/05,00:20,0.773,1.124,0.775,1.400,1.048,0.445,0.772,0.727,��,7.6,��
2019/06/05,00:30,0.774,1.125,0.774,1.400,1.046,0.444,0.771,0.726,��,7.3,��
2019/06/05,00:40,0.772,1.126,0.775,1.401,1.046,0.442,0.771,0.728,��,8.2,��
2019/06/05,00:50,0.774,1.125,0.776,1.400,1.046,0.443,0.772,0.727,��,7.4,��
2019/06/05,01:00,0.774,1.125,0.774,1.400,1.047,0.445,0.772,0.726,��,7.4,��
2019/06/05,01:10,0.773,1.124,0.775,1.400,1.047,0.444,0.772,0.729,��,6.8,��
2019/06/05,01:20,0.772,1.124,0.774,1.399,1.049,0.446,0.773,0.728,��쐼,6.0,��
2019/06/05,01:30,0.771,1.123,0.772,1.400,1.047,0.444,0.771,0.727,��쐼,5.5,��
2019/06/05,01:40,0.773,1.122,0.774,1.401,1.047,0.443,0.771,0.727,��쐼,4.2,��
2019/06/05,01:50,0.771,1.124,0.773,1.400,1.049,0.444,0.771,0.728,��쐼,4.3,��
2019/06/05,02:00,0.772,1.125,0.774,1.401,1.048,0.443,0.771,0.728,��쐼,4.1,��
2019/06/05,02:10,0.773,1.124,0.774,1.401,1.046,0.444,0.773,0.729,��쐼,3.3,��
2019/06/05,02:20,0.771,1.122,0.773,1.402,1.048,0.445,0.771,0.727,��쐼,3.2,��
2019/06/05,02:30,0.774,1.121,0.774,1.400,1.048,0.445,0.772,0.729,��쐼,3.1,��
2019/06/05,02:40,0.771,1.121,0.773,1.398,1.047,0.444,0.773,0.727,��쐼,3.3,��
2019/06/05,02:50,0.773,1.123,0.774,1.400,1.046,0.445,0.771,0.726,��쐼,2.3,��
2019/06/05,03:00,0.774,1.121,0.774,1.399,1.047,0.444,0.770,0.726,��,2.8,��
2019/06/05,03:10,0.771,1.122,0.773,1.402,1.048,0.444,0.773,0.727,��쐼,2.8,��
2019/06/05,03:20,0.773,1.121,0.774,1.402,1.047,0.444,0.772,0.727,��,2.6,��
2019/06/05,03:30,0.771,1.123,0.773,1.401,1.047,0.444,0.770,0.728,��쐼,2.6,��
2019/06/05,03:40,0.770,1.123,0.773,1.401,1.045,0.446,0.772,0.726,��쐼,1.5,��
2019/06/05,03:50,0.773,1.120,0.774,1.400,1.047,0.443,0.771,0.728,��쐼,0.8,��
2019/06/05,04:00,0.771,1.123,0.772,1.401,1.046,0.445,0.771,0.727,-,CALM,��
2019/06/05,04:10,0.771,1.120,0.773,1.402,1.048,0.443,0.772,0.727,��,0.9,��
2019/06/05,04:20,0.773,1.121,0.773,1.399,1.046,0.443,0.770,0.727,�쓌,1.2,��
2019/06/05,04:30,0.772,1.120,0.774,1.399,1.046,0.445,0.772,0.727,��쓌,1.4,��
2019/06/05,04:40,0.772,1.119,0.772,1.400,1.046,0.443,0.771,0.727,��,1.7,��
2019/06/05,04:50,0.771,1.122,0.773,1.402,1.047,0.444,0.770,0.726,��쐼,2.3,��
2019/06/05,05:00,0.772,1.120,0.774,1.401,1.047,0.444,0.771,0.728,�쐼,2.9,��
2019/06/05,05:10,0.771,1.122,0.773,1.400,1.050,0.443,0.771,0.727,��쐼,3.8,��
2019/06/05,05:20,0.773,1.121,0.774,1.398,1.048,0.444,0.771,0.728,��쐼,4.1,��
2019/06/05,05:30,0.772,1.122,0.774,1.401,1.048,0.444,0.772,0.729,��쐼,3.7,��
2019/06/05,05:40,0.773,1.121,0.774,1.400,1.048,0.443,0.772,0.726,��쐼,3.4,��
2019/06/05,05:50,0.772,1.117,0.775,1.401,1.048,0.444,0.773,0.727,��쐼,2.9,��
2019/06/05,06:00,0.774,1.123,0.775,1.400,1.046,0.443,0.775,0.727,��쐼,2.6,��
2019/06/05,06:10,0.774,1.120,0.774,1.401,1.048,0.444,0.772,0.730,�쐼,2.8,��
2019/06/05,06:20,0.773,1.123,0.774,1.400,1.048,0.444,0.770,0.727,��쐼,2.0,��
2019/06/05,06:30,0.773,1.120,0.775,1.400,1.050,0.444,0.773,0.728,�쐼,1.7,��
2019/06/05,06:40,0.773,1.123,0.772,1.401,1.047,0.444,0.771,0.729,��쐼,1.7,��
2019/06/05,06:50,0.773,1.122,0.773,1.401,1.047,0.443,0.772,0.726,�쐼,1.2,��
2019/06/05,07:00,0.772,1.120,0.773,1.401,1.048,0.444,0.772,0.728,��쐼,0.8,��
2019/06/05,07:10,0.773,1.122,0.774,1.400,1.048,0.444,0.772,0.727,�쐼,0.8,�L
2019/06/05,07:20,0.772,1.121,0.776,1.398,1.047,0.443,0.770,0.728,�쐼,0.8,��
2019/06/05,07:30,0.772,1.119,0.775,1.401,1.048,0.443,0.772,0.726,�쐼,0.6,��
2019/06/05,07:40,0.772,1.120,0.774,1.400,1.048,0.442,0.769,0.726,-,CALM,��
2019/06/05,07:50,0.773,1.118,0.776,1.399,1.049,0.441,0.770,0.726,�k�k��,0.8,��
2019/06/05,08:00,0.770,1.120,0.772,1.400,1.049,0.442,0.770,0.724,�k,1.2,��
2019/06/05,08:10,0.771,1.121,0.775,1.401,1.047,0.442,0.771,0.726,�k�k��,1.2,��
2019/06/05,08:20,0.770,1.117,0.775,1.401,1.047,0.442,0.769,0.723,�k��,1.4,��
2019/06/05,08:30,0.773,1.118,0.773,1.402,1.047,0.442,0.772,0.725,�k��,1.1,��
2019/06/05,08:40,0.772,1.114,0.773,1.400,1.048,0.441,0.770,0.725,��,0.8,��
2019/06/05,08:50,0.771,1.120,0.774,1.401,1.047,0.442,0.771,0.724,���쓌,0.8,��
2019/06/05,09:00,0.772,1.116,0.775,1.402,1.048,0.441,0.770,0.725,�쓌,1.4,��
2019/06/05,09:10,0.771,1.119,0.774,1.402,1.047,0.441,0.771,0.728,�쓌,0.9,��
2019/06/05,09:20,0.771,1.115,0.774,1.400,1.047,0.443,0.771,0.726,��,0.6,��
2019/06/05,09:30,0.773,1.116,0.775,1.401,1.047,0.441,0.771,0.726,��,1.7,��
2019/06/05,09:40,0.772,1.116,0.773,1.403,1.050,0.443,0.772,0.727,��,2.5,��
2019/06/05,09:50,0.771,1.116,0.775,1.400,1.051,0.442,0.771,0.725,��,2.3,��
2019/06/05,10:00,0.771,1.118,0.775,1.403,1.049,0.442,0.771,0.725,��쓌,4.4,��
2019/06/05,10:10,0.773,1.121,0.773,1.402,1.050,0.442,0.770,0.726,��쓌,5.4,��
2019/06/05,10:20,0.771,1.121,0.776,1.399,1.053,0.441,0.770,0.727,��,5.5,��
2019/06/05,10:30,0.771,1.119,0.774,1.402,1.050,0.442,0.771,0.724,��,5.4,��
2019/06/05,10:40,0.773,1.118,0.774,1.398,1.049,0.442,0.770,0.725,��,4.9,��
2019/06/05,10:50,0.774,1.120,0.774,1.396,1.050,0.444,0.771,0.726,��,4.1,��
2019/06/05,11:00,0.773,1.120,0.773,1.397,1.050,0.442,0.772,0.727,��,4.7,��
2019/06/05,11:10,0.773,1.120,0.774,1.399,1.052,0.443,0.772,0.726,��,6.6,��
2019/06/05,11:20,0.770,1.119,0.776,1.397,1.051,0.444,0.772,0.724,��,5.6,��
2019/06/05,11:30,0.773,1.120,0.775,1.398,1.051,0.441,0.771,0.726,��,5.0,��
2019/06/05,11:40,0.774,1.120,0.775,1.400,1.051,0.443,0.771,0.726,��,6.2,��
2019/06/05,11:50,0.773,1.120,0.777,1.398,1.050,0.444,0.772,0.724,��,6.1,��
2019/06/05,12:00,0.774,1.122,0.776,1.399,1.050,0.443,0.769,0.727,��,6.2,��
2019/06/05,12:10,0.774,1.124,0.776,1.401,1.050,0.442,0.773,0.725,��,6.2,��
2019/06/05,12:20,0.773,1.121,0.775,1.402,1.051,0.443,0.772,0.725,��,6.6,��
2019/06/05,12:30,0.774,1.121,0.776,1.402,1.053,0.443,0.772,0.727,��,7.5,��
2019/06/05,12:40,0.775,1.121,0.778,1.404,1.053,0.445,0.771,0.726,��,8.8,��
2019/06/05,12:50,0.773,1.119,0.778,1.403,1.052,0.443,0.772,0.726,��,8.2,��
2019/06/05,13:00,0.774,1.121,0.778,1.404,1.055,0.440,0.772,0.725,��,8.6,��
2019/06/05,13:10,0.774,1.127,0.776,1.402,1.055,0.442,0.772,0.724,��,8.3,��
2019/06/05,13:20,0.775,1.122,0.776,1.403,1.053,0.444,0.773,0.727,��,8.8,��
2019/06/05,13:30,0.775,1.121,0.778,1.401,1.051,0.444,0.771,0.726,��,8.8,��
2019/06/05,13:40,0.772,1.120,0.774,1.402,1.052,0.445,0.772,0.728,��,8.9,��
2019/06/05,13:50,0.773,1.121,0.778,1.405,1.052,0.443,0.773,0.727,��,8.7,��
2019/06/05,14:00,0.774,1.120,0.777,1.403,1.055,0.442,0.772,0.727,��,9.4,��
2019/06/05,14:10,0.776,1.123,0.777,1.407,1.054,0.443,0.773,0.725,��,7.8,��
2019/06/05,14:20,0.775,1.121,0.777,1.407,1.052,0.443,0.771,0.727,��,9.4,��
2019/06/05,14:30,0.775,1.122,0.776,1.406,1.052,0.442,0.772,0.726,��,8.7,��
2019/06/05,14:40,0.774,1.122,0.778,1.404,1.050,0.443,0.771,0.725,��,8.7,��
2019/06/05,14:50,0.776,1.119,0.777,1.401,1.052,0.445,0.772,0.726,��,9.1,��
2019/06/05,15:00,0.772,1.125,0.778,1.405,1.051,0.444,0.773,0.726,��,8.4,��
2019/06/05,15:10,0.774,1.125,0.775,1.405,1.053,0.443,0.772,0.727,��,7.7,��
2019/06/05,15:20,0.774,1.126,0.778,1.406,1.053,0.443,0.773,0.726,��,7.5,��
2019/06/05,15:30,0.776,1.125,0.778,1.406,1.053,0.442,0.772,0.726,��,7.7,��
2019/06/05,15:40,0.774,1.123,0.777,1.406,1.049,0.442,0.771,0.725,��,8.2,��
2019/06/05,15:50,0.774,1.126,0.776,1.407,1.051,0.444,0.770,0.726,��,6.5,��
2019/06/05,16:00,0.776,1.124,0.777,1.408,1.050,0.445,0.772,0.727,��,7.5,��
2019/06/05,16:10,0.774,1.126,0.777,1.405,1.052,0.444,0.774,0.725,��,7.6,��
2019/06/05,16:20,0.775,1.127,0.779,1.407,1.054,0.444,0.774,0.725,��,8.6,��
2019/06/05,16:30,0.775,1.128,0.776,1.404,1.053,0.444,0.773,0.726,��,9.4,��
2019/06/05,16:40,0.776,1.126,0.776,1.407,1.052,0.444,0.774,0.727,��,9.0,��
2019/06/05,16:50,0.773,1.125,0.776,1.405,1.052,0.442,0.774,0.726,��,9.5,��
2019/06/05,17:00,0.772,1.128,0.778,1.409,1.052,0.443,0.774,0.729,��,8.7,��
2019/06/05,17:10,0.774,1.125,0.778,1.407,1.051,0.443,0.774,0.727,��,6.4,��
2019/06/05,17:20,0.773,1.125,0.776,1.407,1.053,0.445,0.774,0.727,��,4.5,��
2019/06/05,17:30,0.773,1.125,0.777,1.407,1.051,0.444,0.774,0.727,��,4.1,��
2019/06/05,17:40,0.771,1.125,0.778,1.407,1.050,0.443,0.774,0.731,��쐼,3.3,��
2019/06/05,17:50,0.775,1.128,0.781,1.409,1.051,0.444,0.774,0.729,��,3.7,��
2019/06/05,18:00,0.774,1.126,0.779,1.408,1.050,0.444,0.772,0.727,��,3.8,��
2019/06/05,18:10,0.773,1.127,0.779,1.408,1.052,0.445,0.775,0.729,��쐼,2.8,��
2019/06/05,18:20,0.774,1.126,0.778,1.410,1.051,0.445,0.774,0.730,���k��,2.3,��
2019/06/05,18:30,0.773,1.127,0.778,1.408,1.051,0.444,0.773,0.729,��,3.8,��
2019/06/05,18:40,0.775,1.126,0.778,1.408,1.051,0.445,0.773,0.729,���k��,1.7,��
2019/06/05,18:50,0.774,1.127,0.780,1.408,1.052,0.443,0.773,0.728,�k��,0.6,��
2019/06/05,19:00,0.776,1.128,0.777,1.409,1.054,0.446,0.772,0.726,��쐼,1.2,�L
2019/06/05,19:10,0.775,1.129,0.779,1.406,1.052,0.445,0.772,0.728,��,1.4,��
2019/06/05,19:20,0.775,1.128,0.779,1.407,1.052,0.445,0.773,0.728,��쐼,0.8,�L
2019/06/05,19:30,0.775,1.128,0.778,1.406,1.052,0.444,0.773,0.727,��쐼,0.9,��
2019/06/05,19:40,0.776,1.129,0.781,1.409,1.052,0.443,0.772,0.728,��쐼,1.7,��
2019/06/05,19:50,0.774,1.128,0.778,1.409,1.052,0.444,0.773,0.729,��쐼,3.0,��
2019/06/05,20:00,0.774,1.126,0.779,1.407,1.053,0.444,0.772,0.729,��,4.7,��
2019/06/05,20:10,0.777,1.130,0.778,1.410,1.053,0.445,0.774,0.730,��쐼,3.3,��
2019/06/05,20:20,0.775,1.130,0.779,1.410,1.052,0.445,0.774,0.730,�쐼,4.0,��
2019/06/05,20:30,0.777,1.126,0.778,1.408,1.051,0.445,0.772,0.729,�쐼,3.6,��
2019/06/05,20:40,0.778,1.130,0.779,1.406,1.055,0.444,0.773,0.729,���쐼,3.7,��
2019/06/05,20:50,0.776,1.126,0.777,1.408,1.054,0.444,0.774,0.729,���쐼,2.2,��
2019/06/05,21:00,0.778,1.130,0.779,1.408,1.053,0.444,0.773,0.728,��쐼,2.9,��
2019/06/05,21:10,0.775,1.128,0.778,1.410,1.056,0.445,0.772,0.728,��쐼,4.5,��
2019/06/05,21:20,0.773,1.128,0.777,1.410,1.053,0.445,0.773,0.729,�쐼,5.6,��
2019/06/05,21:30,0.776,1.127,0.779,1.407,1.051,0.445,0.772,0.729,���쐼,5.9,��
2019/06/05,21:40,0.776,1.129,0.778,1.408,1.053,0.444,0.773,0.728,���쐼,6.0,��
2019/06/05,21:50,0.776,1.127,0.778,1.407,1.052,0.444,0.775,0.729,�쐼,5.7,��
2019/06/05,22:00,0.778,1.129,0.778,1.409,1.055,0.445,0.773,0.729,�쐼,4.2,��
2019/06/05,22:10,0.774,1.130,0.779,1.409,1.051,0.445,0.773,0.727,�쐼,3.9,��
2019/06/05,22:20,0.776,1.128,0.776,1.408,1.052,0.445,0.774,0.728,�쐼,3.5,��
2019/06/05,22:30,0.778,1.127,0.778,1.408,1.051,0.445,0.774,0.729,�쐼,2.3,��
2019/06/05,22:40,0.776,1.127,0.778,1.408,1.053,0.446,0.774,0.730,���쐼,2.0,��
2019/06/05,22:50,0.776,1.129,0.778,1.409,1.051,0.444,0.773,0.729,��쐼,1.2,��
2019/06/05,23:00,0.776,1.127,0.780,1.408,1.053,0.444,0.772,0.729,��,1.7,��
2019/06/05,23:10,0.775,1.126,0.778,1.408,1.054,0.445,0.773,0.729,��쐼,2.0,��
2019/06/05,23:20,0.774,1.123,0.778,1.411,1.051,0.444,0.773,0.728,�쐼,2.0,��
2019/06/05,23:30,0.776,1.126,0.777,1.407,1.051,0.447,0.773,0.729,��,2.3,��
2019/06/05,23:40,0.776,1.125,0.778,1.410,1.052,0.446,0.774,0.730,���k��,2.0,��
2019/06/05,23:50,0.776,1.126,0.779,1.408,1.051,0.444,0.772,0.729,���k��,1.1,��
